Regional Weather Roundup
Issued by NWS

Home | Current Version | Previous Version | Text Only | Print | Product List | Glossary Off
Versions: 1 2 3 4 5 6 7 8 9 10 11 12 13 14 15 16 17 18 19 20 21 22 23 24 25 26 27 28 29 30 31 32 33 34 35 36 37 38 39 40 41 42 43 44 45 46 47 48 49 50

000
ASUS43 KIND 101109
RWRIN

WEATHER ROUNDUP FOR INDIANA
NATIONAL WEATHER SERVICE INDIANAPOLIS IN
700 AM EDT THU JUL 10 2014

NOTE: "FAIR" INDICATES FEW OR NO CLOUDS BELOW 12,000 FEET WITH NO
SIGNIFICANT WEATHER AND/OR OBSTRUCTIONS TO VISIBILITY.

* - STATION DOES NOT REPORT WEATHER SUCH AS PRECIPITATION OR FOG.

+ - STATION NOT QUALITY CONTROLLED BY THE NATIONAL WEATHER SERVICE.
    USE DATA WITH CAUTION...ESPECIALLY DEWPOINT AND RELATIVE
    HUMIDITY OBSERVATIONS.

INZ001>003-010>013-019-020-101200-
NORTHWEST INDIANA

CITY           SKY/WX    TMP DP  RH WIND       PRES   REMARKS
GARY /AIRPORT/ PTCLDY    59  57  94 CALM      30.13R
KNOX *+          N/A     50  48  94 CALM      30.12R VSB<1/4
LA PORTE +     CLEAR     54  54 100 CALM      30.14R
MICHIGAN CITY+ CLEAR     52  52 100 CALM      30.14R FOG
MONTICELLO +   CLEAR     57  55  92 CALM      30.11R
RENSSELAER +   CLEAR     52  52 100 CALM      30.13R
VALPARAISO     CLEAR     55  54  96 N3        30.13R FOG

$$

LMZ046-743>745-101200-
SOUTHERN LAKE MICHIGAN

STATION/POSITION TIME  TEMP WIND        PRES
                       AIR  DIR/SP/G
                 (UTC) (F)  (DEG/KT/KT) (MB)
MICHIGAN CITY    1100   62   60/  2/  3   N/A

$$

INZ004-005-014>016-021>024-101200-
NORTH CENTRAL INDIANA

CITY           SKY/WX    TMP DP  RH WIND       PRES   REMARKS
ELKHART        CLEAR     57  54  88 CALM      30.14
GOSHEN         CLEAR     57  55  93 CALM      30.13R
LOGANSPORT +   CLEAR     55  52  88 N3        30.12R
PERU/GRISSOM   CLEAR     58  58 100 NE3       30.11R
ROCHESTER +    CLEAR     54  54 100 CALM      30.13R
SOUTH BEND     CLEAR     57  52  83 N3        30.14R
WARSAW +       FOG       52  52 100 CALM      30.12S VSB 1

$$

INZ006>009-017-018-025>027-101200-
NORTHEAST INDIANA

CITY           SKY/WX    TMP DP  RH WIND       PRES   REMARKS
ANGOLA *+      CLEAR     55  54  94 CALM      30.12R
AUBURN +       CLEAR     55  52  88 N3        30.12R
FORT WAYNE     PTCLDY    58  54  86 NW6       30.12R
HUNTINGTON +   CLEAR     57  55  92 CALM      30.11R

$$

INZ028-029-035-036-043>045-051>053-101200-
WEST CENTRAL INDIANA

CITY           SKY/WX    TMP DP  RH WIND       PRES   REMARKS
GREENCASTLE +  CLEAR     59  55  88 CALM      30.09S
LAFAYETTE      CLEAR     60  55  83 N3        30.11R
TERRE HAUTE    CLEAR     58  57  97 NW3       30.09R

$$

INZ030>032-037>040-046>048-054>057-064-065-101200-
CENTRAL INDIANA

CITY           SKY/WX    TMP DP  RH WIND       PRES   REMARKS
CP ATTERBURY + PTCLDY    54  54 100 CALM      30.09R
INDIANAPOLIS   PTCLDY    62  56  80 NE7       30.08R
-EAGLE CREEK   CLEAR     62  55  77 N3        30.08R
KOKOMO *+      CLEAR     59  54  82 N7        30.12R
MARION +       PTCLDY    59  55  87 N5        30.12R
MT COMFORT *+  CLEAR     55 N/A N/A N3        30.10R
SHELBYVILLE    PTCLDY    59  56  89 N5        30.08R
ZIONSVILLE +   CLEAR     60  56  85 CALM      30.11R

$$

INZ033-034-041-042-049-050-058-059-101200-
EAST CENTRAL INDIANA

CITY           SKY/WX    TMP DP  RH WIND       PRES   REMARKS
MUNCIE         MOCLDY    60  56  86 CALM      30.10R

$$

INZ060-061-067>069-081>083-085>088-101200-
SOUTHWEST INDIANA

CITY           SKY/WX    TMP DP  RH WIND       PRES   REMARKS
EVANSVILLE     CLEAR     67  60  78 CALM      30.06S
HUNTINGBURG *+ MOCLDY    63  59  88 NE3       30.07S
WASHINGTON +   MOCLDY    59  58  99 CALM      30.06S

$$

INZ062-063-066-070>080-084-089>092-101200-
SOUTH CENTRAL AND SOUTHEAST INDIANA

CITY           SKY/WX    TMP DP  RH WIND       PRES   REMARKS
BLOOMINGTON    PTCLDY    58  56  93 CALM      30.08R
NORTH VERNON + MOCLDY    61  61 100 CALM      30.08

$$



USA.gov is the U.S. government's official web portal to all federal, state and local government web resources and services.